Time,TemperatureF,DewpointF,PressureIn,WindDirection,WindDirectionDegrees,WindSpeedMPH,WindSpeedGustMPH,Humidity,HourlyPrecipIn,Conditions,Clouds,dailyrainin,SoftwareType,DateUTC
2013-11-06 00:22:00,40.0,38.0,29.92,NW,306,4.0,4.0,93,0.01,,,0.60,,2013-11-06 06:22:00,
2013-11-06 00:42:00,40.0,38.0,29.92,NNW,327,4.0,4.0,93,0.01,,,0.60,,2013-11-06 06:42:00,
2013-11-06 00:52:00,40.0,38.0,29.93,NW,315,3.0,3.0,93,0.01,,,0.60,,2013-11-06 06:52:00,
2013-11-06 01:12:00,39.0,37.0,29.95,NW,312,6.0,6.0,93,0.01,,,0.60,,2013-11-06 07:12:00,
2013-11-06 01:22:00,39.0,37.0,29.95,WNW,293,2.0,2.0,93,0.01,,,0.60,,2013-11-06 07:22:00,
2013-11-06 01:42:00,39.0,37.0,29.97,NW,323,1.0,1.0,93,0.00,,,0.60,,2013-11-06 07:42:00,
2013-11-06 01:52:00,38.0,36.0,29.97,NNW,330,1.0,1.0,93,0.00,,,0.60,,2013-11-06 07:52:00,
2013-11-06 02:22:00,38.0,36.0,29.96,NNW,333,2.0,2.0,93,0.00,,,0.60,,2013-11-06 08:22:00,
2013-11-06 02:42:00,38.0,36.0,29.97,NNW,340,3.0,3.0,93,0.00,,,0.60,,2013-11-06 08:42:00,
2013-11-06 02:52:00,37.0,35.0,29.98,NNW,328,5.0,5.0,93,0.00,,,0.60,,2013-11-06 08:52:00,
2013-11-06 03:22:00,37.0,35.0,30.02,NW,322,5.0,5.0,92,0.00,,,0.60,,2013-11-06 09:22:00,
2013-11-06 03:43:00,37.0,35.0,30.02,NNW,333,2.0,2.0,92,0.00,,,0.60,,2013-11-06 09:43:00,
2013-11-06 03:53:00,37.0,35.0,29.99,WNW,303,0.0,0.0,92,0.00,,,0.60,,2013-11-06 09:53:00,
2013-11-06 04:23:00,37.0,35.0,30.01,NW,320,2.0,2.0,91,0.00,,,0.59,,2013-11-06 10:23:00,
2013-11-06 04:52:00,37.0,34.0,30.03,NNW,338,0.0,0.0,89,0.00,,,0.59,,2013-11-06 10:52:00,
2013-11-06 05:22:00,37.0,34.0,30.03,NNE,12,4.0,4.0,88,0.00,,,0.58,,2013-11-06 11:22:00,
2013-11-06 05:42:00,37.0,34.0,30.03,North,5,4.0,4.0,88,0.00,,,0.58,,2013-11-06 11:42:00,
2013-11-06 05:52:00,37.0,34.0,30.04,NNW,344,0.0,0.0,87,0.00,,,0.58,,2013-11-06 11:52:00,
2013-11-06 06:22:00,37.0,34.0,30.05,NNW,344,0.0,0.0,87,0.00,,,0.57,,2013-11-06 12:22:00,
2013-11-06 06:42:00,37.0,33.0,30.06,North,355,1.0,1.0,86,0.00,,,0.57,,2013-11-06 12:42:00,
2013-11-06 06:52:00,37.0,33.0,30.08,NW,316,0.0,0.0,86,0.00,,,0.57,,2013-11-06 12:52:00,
2013-11-06 07:12:00,37.0,33.0,30.09,NNW,336,0.0,0.0,85,0.00,,,0.57,,2013-11-06 13:12:00,
2013-11-06 07:22:00,37.0,33.0,30.10,NNW,344,0.0,0.0,85,0.00,,,0.57,,2013-11-06 13:22:00,
2013-11-06 07:42:00,37.0,33.0,30.11,NNW,336,2.0,2.0,86,0.00,,,0.57,,2013-11-06 13:42:00,
2013-11-06 07:52:00,37.0,33.0,30.12,NW,314,0.0,0.0,86,0.00,,,0.57,,2013-11-06 13:52:00,
2013-11-06 08:22:00,37.0,33.0,30.14,NNW,340,10.0,10.0,86,0.00,,,0.56,,2013-11-06 14:22:00,
2013-11-06 08:42:00,38.0,34.0,30.14,NNW,340,2.0,2.0,85,0.00,,,0.56,,2013-11-06 14:42:00,
2013-11-06 08:52:00,38.0,34.0,30.15,North,355,3.0,3.0,85,0.00,,,0.56,,2013-11-06 14:52:00,
2013-11-06 09:11:00,38.0,34.0,30.16,NNW,332,1.0,1.0,84,0.00,,,0.56,,2013-11-06 15:11:00,
2013-11-06 09:22:00,38.0,34.0,30.17,NW,307,3.0,3.0,84,0.00,,,0.56,,2013-11-06 15:22:00,
2013-11-06 09:43:00,38.0,33.0,30.17,WNW,302,0.0,0.0,83,0.00,,,0.56,,2013-11-06 15:43:00,
2013-11-06 09:53:00,38.0,33.0,30.19,NW,320,0.0,0.0,83,0.00,,,0.56,,2013-11-06 15:53:00,
2013-11-06 10:23:00,38.0,33.0,30.20,NNW,331,2.0,2.0,82,0.00,,,0.55,,2013-11-06 16:23:00,
2013-11-06 10:42:00,38.0,33.0,30.20,WNW,301,0.0,0.0,81,0.00,,,0.55,,2013-11-06 16:42:00,
2013-11-06 10:53:00,39.0,34.0,30.22,NNW,329,0.0,0.0,81,0.00,,,0.55,,2013-11-06 16:53:00,
2013-11-06 11:13:00,39.0,33.0,30.22,NNW,327,5.0,5.0,80,0.00,,,0.50,,2013-11-06 17:13:00,
2013-11-06 11:23:00,39.0,33.0,30.22,West,277,5.0,5.0,79,0.00,,,0.50,,2013-11-06 17:23:00,
2013-11-06 11:33:00,39.0,33.0,30.22,West,277,5.0,5.0,79,0.00,,,0.50,,2013-11-06 17:33:00,
2013-11-06 11:43:00,39.0,33.0,30.22,West,277,5.0,5.0,79,0.00,,,0.50,,2013-11-06 17:43:00,
2013-11-06 11:52:00,40.0,33.0,30.22,NW,307,3.0,3.0,77,0.00,,,0.50,,2013-11-06 17:52:00,
2013-11-06 12:22:00,42.0,34.0,30.22,North,355,0.0,0.0,74,0.00,,,0.44,,2013-11-06 18:22:00,
2013-11-06 12:42:00,42.0,34.0,30.22,NNW,343,3.0,3.0,74,0.00,,,0.44,,2013-11-06 18:42:00,
2013-11-06 12:52:00,43.0,35.0,30.22,North,350,2.0,2.0,74,0.00,,,0.44,,2013-11-06 18:52:00,
2013-11-06 13:22:00,45.0,35.0,30.21,NW,325,2.0,2.0,67,0.00,,,0.44,,2013-11-06 19:22:00,
2013-11-06 13:42:00,46.0,36.0,30.20,NW,325,0.0,0.0,67,0.00,,,0.44,,2013-11-06 19:42:00,
2013-11-06 13:52:00,46.0,35.0,30.21,NNW,336,0.0,0.0,65,0.00,,,0.44,,2013-11-06 19:52:00,
2013-11-06 14:22:00,48.0,35.0,30.22,West,271,0.0,0.0,60,0.00,,,0.44,,2013-11-06 20:22:00,
2013-11-06 14:52:00,47.0,34.0,30.22,SW,231,0.0,0.0,61,0.00,,,0.44,,2013-11-06 20:52:00,
2013-11-06 15:12:00,46.0,34.0,30.22,WSW,253,0.0,0.0,63,0.00,,,0.43,,2013-11-06 21:12:00,
2013-11-06 15:22:00,46.0,33.0,30.22,WSW,247,0.0,0.0,60,0.00,,,0.43,,2013-11-06 21:22:00,
2013-11-06 15:54:00,46.0,33.0,30.22,WSW,256,0.0,0.0,60,0.00,,,0.43,,2013-11-06 21:54:00,
2013-11-06 16:14:00,46.0,34.0,30.23,WSW,256,0.0,0.0,62,0.00,,,0.19,,2013-11-06 22:14:00,
2013-11-06 16:23:00,46.0,34.0,30.23,WSW,256,0.0,0.0,62,0.00,,,0.19,,2013-11-06 22:23:00,
2013-11-06 16:43:00,46.0,35.0,30.24,WSW,256,0.0,0.0,64,0.00,,,0.19,,2013-11-06 22:43:00,
2013-11-06 16:53:00,46.0,35.0,30.24,WSW,256,0.0,0.0,64,0.00,,,0.19,,2013-11-06 22:53:00,
2013-11-06 17:22:00,45.0,33.0,30.23,WSW,256,0.0,0.0,63,0.00,,,0.14,,2013-11-06 23:22:00,
2013-11-06 17:53:00,44.0,33.0,30.23,WSW,256,0.0,0.0,66,0.00,,,0.14,,2013-11-06 23:53:00,
2013-11-06 18:22:00,42.0,34.0,30.24,WSW,256,0.0,0.0,73,0.00,,,0.14,,2013-11-07 00:22:00,
2013-11-06 18:42:00,41.0,34.0,30.24,WSW,256,0.0,0.0,76,0.00,,,0.14,,2013-11-07 00:42:00,
2013-11-06 18:52:00,40.0,34.0,30.26,WSW,256,0.0,0.0,79,0.00,,,0.14,,2013-11-07 00:52:00,
2013-11-06 19:22:00,38.0,33.0,30.26,WSW,256,0.0,0.0,81,0.00,,,0.12,,2013-11-07 01:22:00,
2013-11-06 19:42:00,38.0,33.0,30.27,WSW,256,0.0,0.0,81,0.00,,,0.12,,2013-11-07 01:42:00,
2013-11-06 19:52:00,37.0,32.0,30.27,WSW,256,0.0,0.0,81,0.00,,,0.12,,2013-11-07 01:52:00,
2013-11-06 20:12:00,37.0,32.0,30.27,WSW,256,0.0,0.0,83,0.00,,,0.09,,2013-11-07 02:12:00,
2013-11-06 20:22:00,36.0,31.0,30.27,WSW,256,0.0,0.0,83,0.00,,,0.09,,2013-11-07 02:22:00,
2013-11-06 21:22:00,36.0,32.0,30.26,WSW,256,0.0,0.0,86,0.00,,,0.08,,2013-11-07 03:22:00,
2013-11-06 21:44:00,36.0,32.0,30.29,WSW,256,0.0,0.0,86,0.00,,,0.08,,2013-11-07 03:44:00,
2013-11-06 21:55:00,36.0,32.0,30.30,WSW,256,0.0,0.0,85,0.00,,,0.08,,2013-11-07 03:55:00,
2013-11-06 22:13:00,35.0,31.0,30.27,WSW,256,0.0,0.0,86,0.00,,,0.03,,2013-11-07 04:13:00,
2013-11-06 22:24:00,35.0,31.0,30.28,WSW,256,0.0,0.0,86,0.00,,,0.03,,2013-11-07 04:24:00,
2013-11-06 22:43:00,34.0,31.0,30.28,WSW,256,0.0,0.0,87,0.00,,,0.03,,2013-11-07 04:43:00,
2013-11-06 22:53:00,34.0,31.0,30.28,WSW,256,0.0,0.0,87,0.00,,,0.03,,2013-11-07 04:53:00,
2013-11-06 23:23:00,33.0,30.0,30.29,WSW,256,0.0,0.0,88,0.00,,,0.01,,2013-11-07 05:23:00,
2013-11-06 23:44:00,33.0,30.0,30.28,WSW,256,0.0,0.0,88,0.00,,,0.01,,2013-11-07 05:44:00,
2013-11-06 23:54:00,32.0,29.0,30.28,WSW,256,0.0,0.0,89,0.00,,,0.01,,2013-11-07 05:54:00,